CAPE
0 0 0 0 0 0 0 0 0 0 0 0 0 0 0 0 0 0 0 0 0 0 0 0 0 0 0 0 0 2 2 3 3 4 3 5 5 5
0 0 0 0 0 0 0 0 0 0 0 0 0 0 0 0 0 0 0 0 0 0 0 0 0 0 1 1 1 1 2 2 4 5 4 5 6 9
0 0 0 0 0 0 0 0 0 0 0 0 0 0 0 0 0 0 0 0 0 0 0 0 0 0 1 4 3 2 6 4 1 1 4 5 5 6
0 0 0 0 0 0 0 0 0 0 0 0 0 0 0 0 0 0 0 0 0 0 0 0 0 0 4 4 4 5 2 0 0 0 0 2 11 10
0 0 0 0 0 0 0 0 0 0 0 0 0 0 0 0 0 0 0 0 0 0 0 0 0 0 0 0 0 1 0 0 0 0 0 1 2 9
0 0 0 0 0 0 0 0 0 0 0 0 0 0 0 0 0 0 0 0 0 0 0 0 0 0 0 0 0 0 0 0 0 0 0 0 1 4
0 0 0 0 0 0 0 0 0 0 0 0 0 0 0 0 0 0 0 0 0 0 0 0 0 0 0 0 0 0 0 0 0 0 1 2 5 13
0 0 0 0 0 0 0 1 0 0 0 0 0 0 0 0 0 0 0 0 0 0 0 0 0 0 0 0 0 0 0 0 0 0 2 7 14 17
0 0 0 0 0 0 0 0 0 0 5 0 0 0 0 0 0 0 0 0 0 0 0 0 0 0 0 0 0 0 0 0 0 0 1 1 5 9
0 0 0 0 0 0 0 0 0 0 0 0 0 0 0 0 0 0 0 0 0 0 0 4 0 0 0 0 0 0 0 0 0 3 6 6 5 4
0 0 0 0 0 0 3 0 0 0 0 0 2 7 8 11 12 0 0 3 3 3 0 2 0 0 0 0 0 0 0 0 0 0 0 1 3 6
0 0 0 0 1 9 10 2 0 0 0 0 0 0 0 0 0 9 16 15 17 12 0 1 1 0 0 0 0 0 0 0 0 0 0 0 0 0
0 0 0 0 3 6 10 15 1 2 0 4 0 0 0 0 0 0 0 0 2 3 0 0 0 0 2 1 0 0 0 0 0 0 0 0 0 0
0 0 0 1 11 14 20 18 27 32 39 4 2 3 0 0 0 0 0 0 0 1 0 0 1 0 0 0 0 0 0 0 0 0 0 0 0 0
0 0 4 9 13 3 0 7 18 14 10 17 3 1 1 9 4 0 0 0 1 0 0 0 0 0 0 0 0 0 0 0 0 0 0 0 0 0
0 0 0 0 0 1 0 0 0 0 0 0 2 14 6 11 16 12 5 0 1 0 0 0 0 0 0 0 1 3 0 3 0 0 0 0 0 0
10 5 0 0 0 0 0 0 0 0 0 0 0 0 1 0 1 3 5 2 1 0 0 0 0 0 1 2 6 2 2 3 0 0 0 2 0 0
0 0 0 0 0 0 0 0 0 0 2 3 1 0 1 1 4 6 12 14 9 2 0 0 0 1 1 0 4 3 1 4 0 1 2 11 6 0
0 0 0 0 0 0 0 0 0 0 1 4 12 16 12 10 8 21 7 9 5 4 1 0 0 2 3 4 0 0 11 3 5 6 1 6 10 0
0 0 0 0 0 0 0 0 0 0 2 5 6 7 12 34 25 13 28 4 4 1 1 0 1 2 4 1 1 1 0 6 8 8 7 9 7 1
0 0 0 0 0 0 0 0 0 2 5 6 17 17 20 27 19 4 6 12 7 1 0 0 0 0 0 2 2 2 0 0 3 9 10 14 9 9
0 0 0 0 0 0 0 0 0 1 2 4 4 8 11 7 5 4 3 3 1 1 3 1 0 0 5 11 4 2 3 0 0 0 2 8 15 5
0 0 0 0 0 0 0 0 0 2 1 1 4 6 6 7 4 5 6 5 4 2 1 2 3 3 7 6 5 6 2 1 4 2 2 0 2 3
CIN
0 0 0 0 0 0 0 0 0 0 0 0 0 0 0 0 0 0 0 0 0 0 0 0 0 0 0 0 0 0 0 0 0 0 0 0 0 0
0 0 0 0 0 0 0 0 0 0 0 0 0 0 0 0 0 0 0 0 0 0 0 0 0 0 0 0 0 0 0 0 0 0 0 0 0 0
0 0 0 0 0 0 0 0 0 0 0 0 0 0 0 0 0 0 0 0 0 0 0 0 0 0 0 0 0 0 0 0 0 0 0 0 0 0
0 0 0 0 0 0 0 0 0 0 0 0 0 0 0 0 0 0 0 0 0 0 0 0 0 0 0 0 0 0 0 0 0 0 0 0 0 0
0 0 0 0 0 0 0 0 0 0 0 0 0 0 0 0 0 0 0 0 0 0 0 0 0 0 0 0 0 0 0 0 0 0 0 0 0 0
0 0 0 0 0 0 0 0 0 0 0 0 0 0 0 0 0 0 0 0 0 0 0 0 0 0 0 0 0 0 0 0 0 0 0 0 0 0
0 0 0 0 0 0 0 0 0 0 0 0 0 0 0 0 0 0 0 0 0 0 0 0 0 0 0 0 0 0 0 0 0 0 0 0 0 0
0 0 0 0 0 0 0 0 0 0 0 0 0 0 0 0 0 0 0 0 0 0 0 0 0 0 0 0 0 0 0 0 0 0 0 0 0 0
0 0 0 0 0 0 0 0 0 0 -2 0 0 0 0 0 0 0 0 0 0 0 0 0 0 0 0 0 0 0 0 0 0 0 0 0 0 0
0 0 0 0 0 0 0 0 0 0 0 0 0 0 0 0 0 0 0 0 0 0 0 0 0 0 0 0 0 0 0 0 0 0 0 0 0 0
0 0 0 0 0 0 0 0 0 0 0 0 0 0 0 0 0 0 0 0 0 0 0 0 0 0 0 0 0 0 0 0 0 0 0 0 0 0
0 0 0 0 0 0 0 -6 0 0 0 0 0 0 0 0 0 0 0 0 0 0 0 0 0 0 0 0 0 0 0 0 0 0 0 0 0 0
0 0 0 0 0 0 0 -5 -14 -1 0 0 0 0 0 0 0 0 0 0 0 0 0 0 0 0 0 0 0 0 0 0 0 0 0 0 0 0
0 0 0 0 0 0 0 0 0 0 0 -4 -7 -5 -2 0 0 0 0 0 0 0 0 0 0 0 0 0 0 0 0 0 0 0 0 0 0 0
0 0 0 0 0 -2 -1 0 0 0 0 -1 -9 -1 -4 -3 -8 0 0 0 0 0 0 0 0 0 0 0 0 0 0 0 0 0 0 0 0 0
0 0 0 0 0 0 0 0 0 0 0 0 0 0 -1 0 0 -3 -6 -3 0 0 0 0 0 0 0 0 0 0 0 0 0 0 0 0 0 0
0 0 0 0 0 0 0 0 0 0 0 0 0 0 0 0 0 -1 -6 -1 0 0 0 0 0 0 0 0 0 0 0 0 0 0 0 0 0 0
-1 0 0 0 0 0 0 0 0 0 0 0 0 0 0 0 0 0 0 0 0 0 0 0 0 0 0 0 0 0 0 0 0 0 0 0 0 0
0 0 0 0 0 0 0 0 0 0 0 0 0 0 0 0 0 0 0 0 0 0 0 0 0 0 0 0 0 0 0 0 0 0 0 0 0 0
0 0 0 0 0 0 0 0 0 0 0 0 0 0 -2 0 0 0 0 0 0 0 0 0 0 0 0 0 0 0 0 0 0 0 0 0 0 0
0 0 0 0 0 0 0 0 0 0 0 0 0 0 0 0 0 0 0 0 0 0 0 0 0 0 0 0 0 0 0 0 0 0 0 0 0 0
0 0 0 0 0 0 0 0 0 0 0 0 0 0 0 0 0 0 0 0 0 0 0 0 0 0 0 0 0 0 0 0 0 0 0 0 0 0
0 0 0 0 0 0 0 0 0 0 0 0 0 0 0 0 0 0 0 0 0 0 0 0 0 0 0 0 0 0 0 0 0 0 0 0 0 0
Wind_Speed
8 8 6 5 5 5 4 2 1 3 2 3 1 3 2 3 6 5 6 10 9 8 7 6 6 5 6 6 6 6 6 7 7 8 8 8 8 9
5 8 7 5 5 5 5 4 3 1 3 0 1 1 2 2 4 4 5 7 8 8 7 6 6 6 6 6 6 6 6 7 8 8 8 9 10 10
6 7 7 6 5 4 4 4 4 3 3 2 1 1 0 3 3 4 3 3 4 7 6 6 6 6 6 6 4 4 5 7 9 11 12 11 11 11
6 7 6 4 6 5 4 5 4 4 2 3 1 1 0 2 3 4 3 2 3 6 8 7 6 7 5 5 6 5 3 5 8 10 11 11 11 10
5 5 5 4 5 3 4 3 3 3 3 1 1 0 1 1 2 3 3 3 3 7 7 6 7 5 6 6 7 7 6 7 9 11 12 11 12 13
5 5 4 4 4 4 3 3 2 2 2 1 1 1 2 0 1 2 2 2 5 5 4 4 4 7 8 8 7 7 8 10 11 12 13 12 13 12
3 3 2 2 3 4 2 3 3 2 1 2 2 2 2 1 2 1 3 4 4 2 3 1 4 4 4 5 6 8 9 10 11 12 13 13 14 11
2 1 1 1 3 4 5 4 6 3 4 3 3 4 5 4 3 3 2 2 3 1 1 5 3 6 4 3 6 9 11 12 13 13 13 14 14 13
1 1 1 2 3 1 4 6 7 8 7 4 6 5 4 4 3 4 6 5 5 4 3 6 3 5 4 5 10 11 12 13 14 15 15 15 16 16
2 3 4 4 5 5 5 6 7 7 8 6 7 8 8 8 8 8 8 7 6 6 6 5 3 6 6 5 11 13 13 12 12 12 12 14 16 17
3 4 5 6 8 11 8 6 9 9 9 14 15 16 16 17 14 6 7 6 6 6 4 3 5 5 6 7 5 7 8 5 11 17 18 17 17 19
4 5 10 10 12 14 9 8 8 10 10 10 9 10 12 11 15 11 4 6 6 3 5 5 4 3 4 3 4 3 7 12 15 16 16 17 18 10
5 5 6 11 12 13 14 7 8 10 11 10 8 8 7 8 8 8 9 9 9 9 7 5 3 4 4 5 6 7 7 9 7 10 14 16 16 14
7 7 7 13 14 15 14 15 18 17 8 8 8 8 7 8 8 8 9 9 9 11 9 7 4 6 3 5 6 7 8 8 8 8 8 12 15 16
5 9 15 16 16 12 12 16 17 6 6 5 6 8 8 8 9 5 7 8 8 9 8 9 6 7 6 7 7 7 9 7 8 10 8 8 9 9
9 8 10 12 14 11 10 8 6 7 7 7 8 7 6 6 6 6 6 5 5 6 9 9 9 8 6 8 8 9 10 7 8 9 9 9 10 9
10 5 4 4 5 5 5 6 6 6 6 7 7 8 8 8 7 8 7 7 7 6 7 5 7 7 7 9 9 10 10 10 10 10 10 10 10 10
3 2 2 3 4 5 6 6 6 8 7 7 7 7 7 7 7 7 8 8 8 8 8 7 4 3 3 8 17 11 10 10 10 10 10 10 11 10
1 2 3 4 5 5 6 6 7 8 8 7 7 7 7 7 10 8 8 8 8 8 8 6 5 5 8 10 7 14 10 9 9 10 9 10 11 13
2 4 5 5 5 5 6 7 7 8 8 8 8 8 8 8 9 9 8 9 8 8 7 6 7 8 9 10 8 9 13 9 9 11 11 10 12 23
4 5 5 7 7 7 7 7 8 8 8 8 8 7 7 8 8 8 8 13 11 7 8 9 9 15 8 6 7 10 9 19 18 13 10 10 11 12
6 7 7 7 7 7 7 7 7 8 8 8 8 8 7 7 7 8 7 7 8 7 8 7 6 6 7 10 13 14 10 9 14 23 26 23 12 13
7 7 7 7 7 7 7 7 7 7 8 8 8 8 8 7 8 8 8 8 8 8 8 8 7 7 9 10 14 11 14 13 10 11 10 21 26 30
Wind_Direction
93 92 86 75 70 68 70 56 100 155 144 145 137 58 47 45 40 26 11 1 359 359 355 355 352 349 346 338 342 343 345 347 345 343 343 346 345 345
94 93 85 77 72 66 67 63 52 99 131 95 111 87 29 28 28 14 0 360 354 349 341 340 335 330 326 324 319 328 347 348 348 345 343 340 337 335
96 96 90 89 80 73 70 66 61 46 105 118 86 107 5 355 357 349 350 350 344 346 343 342 341 326 327 327 342 347 6 11 2 351 341 334 329 327
102 99 96 95 83 75 72 72 66 49 80 122 116 126 296 344 323 325 344 339 342 336 338 337 338 339 342 351 346 335 359 342 343 340 338 328 324 321
110 104 101 100 93 88 83 86 80 75 65 94 106 59 308 336 329 322 332 324 327 329 333 338 341 327 337 334 323 334 348 331 321 320 320 320 317 313
119 119 122 118 123 126 119 114 122 123 124 146 210 265 260 13 295 312 322 327 326 325 334 354 23 353 337 331 338 331 317 307 308 310 310 311 309 307
102 100 107 143 166 169 155 163 169 164 189 222 237 247 260 247 273 316 299 312 304 294 325 20 334 322 313 316 312 302 303 308 309 311 305 302 303 307
141 120 86 1 346 321 309 241 198 198 225 242 258 261 266 261 256 269 267 302 313 182 280 302 303 300 305 302 299 302 307 302 303 302 303 308 301 298
183 231 259 268 306 311 310 300 302 295 257 227 249 250 257 239 233 257 261 260 259 274 262 282 278 281 293 291 295 297 299 298 298 300 301 299 298 298
213 241 253 268 264 264 268 273 273 272 272 271 251 252 246 257 242 254 269 271 266 265 232 258 251 276 291 284 283 292 296 297 299 303 312 313 309 304
237 242 247 259 264 269 264 245 262 268 268 271 268 253 248 249 244 236 240 241 254 259 197 258 270 284 281 285 287 289 296 302 306 305 300 298 298 299
248 250 261 261 254 259 252 237 248 262 268 267 265 265 267 273 277 273 234 240 242 261 239 227 229 270 287 258 269 267 292 292 296 297 296 295 295 292
265 266 259 269 277 276 272 243 234 252 256 254 247 253 256 256 258 255 243 237 244 245 250 210 216 248 237 278 283 286 290 291 289 289 289 289 291 287
245 260 265 272 277 276 275 274 276 271 255 237 241 242 247 251 252 253 248 239 239 244 258 228 208 229 251 281 278 290 286 286 283 284 285 288 287 284
279 270 272 276 287 305 299 287 289 287 288 273 252 255 250 253 256 248 253 247 242 240 241 227 222 235 244 254 270 279 290 292 288 279 279 281 286 287
274 274 274 277 284 289 291 289 279 272 273 275 273 276 268 252 252 244 249 237 226 237 232 236 233 228 249 249 261 265 269 271 282 280 283 282 279 273
260 245 264 280 290 290 290 285 285 281 273 271 269 265 261 260 252 247 237 244 230 231 240 223 232 234 243 254 262 256 267 267 264 278 284 278 274 273
36 50 3 329 312 310 306 304 295 289 284 280 274 263 260 257 259 256 247 239 244 239 238 245 235 252 265 257 233 254 260 262 272 273 271 276 280 276
66 292 283 280 280 283 285 289 289 290 289 276 271 269 263 262 267 252 238 238 236 234 235 234 236 235 262 262 261 236 246 259 270 272 267 262 268 277
265 284 285 281 275 273 276 278 280 279 277 272 269 267 261 257 258 255 249 235 234 228 233 234 236 236 235 251 269 271 245 257 257 262 269 267 266 274
281 274 270 273 272 270 268 269 266 270 269 267 269 266 269 264 260 257 251 245 228 222 237 244 237 242 247 260 251 258 253 244 250 259 268 269 275 278
270 273 272 267 268 267 268 267 269 272 272 270 270 268 270 270 267 262 256 256 255 256 257 261 256 245 243 247 261 270 272 266 258 260 261 260 261 265
260 262 264 263 261 261 257 260 259 264 262 261 262 263 262 263 263 263 259 254 252 250 251 257 250 241 242 243 253 262 260 263 266 272 262 255 259 262